Location: Newark
(25.6108°S, 54.5803°W)
Time: 04:32:58
(UTC+00:00)

deb Explorer IX - Pass Details

Date: 05 November 2020
Orbit: 538 x 1104 km, 38.8° (Epoch: 29 November)

Event Time Altitude Azimuth Distance (km) Brightness Sun altitude
Rises 21:45:30 0° 234° (SW) 3,385 ? 1.7°
Reaches altitude 10° 21:48:30 10° 224° (SW) 2,341 ? 1.1°
Maximum altitude 21:53:15 30° 163° (SSE) 1,250 ? 0.1°
Drops below altitude 10° 21:57:24 10° 101° (E) 2,026 ? -0.8°
Enters shadow 21:59:46 - 90° (E) 2,840 ? -1.3°
Sets 21:59:48 0° 90° (E) 2,857 - -1.3°
